Showing default

BEIDOU 6, 37210

Orbit data source: Space-Track

BEIDOU 6, 37210 is a payload satellite owned by CNSA (CN) in GEO that was launched on Sun, 31 Oct 2010 UTC via a CHANG ZHENG 3C launch vehicle from the Xichang Space Center, China (XSC). Payload-class satellites include a variety of spacecraft equipped with specific instruments for various scientific and technological missions. These include communications satellites like Starlink; space stations such as the ISS; scientific satellites like the Hubble; Earth observation satellites from companies like Planet Labs, Umbra, and HawkEye 360; GPS; miniature CubeSats for education and research; and military/defense satellites.

Not visible in the next 10 days
Identifier
37210, 2010-057A
Orbit
GEO
Last TLE update
5 hours ago
Origin
Manufacturer
CAST
Mission
Operational Defense Navigation
Bus & Motor
DFH-3B, FY-25
Mass
3,060 kg wet, 1,700 kg dry
Launch date (UTC)
2010-10-31 (15 years ago)
Launch vehicle
CHANG ZHENG 3C
Launch site
Xichang Space Center, China (XSC)
Object type
Payload
Rocket body
Debris
Shape & HBR
Box + 2 Pan, 18 m
Radar Cross Section
13.998 m², Large (>1 m²)

Expand to show TLE details & history

TLE from 5 hours ago
0 BEIDOU 6
1 37210U 10057A   25182.19157014 -.00000111  00000-0  00000+0 0  9995
2 37210   2.7752  70.4532 0004774 175.3868 262.6088  1.00271320 53768
Epoch: 2025-07-01T04:35Z
TLE epoch observation values (Epoch: 2025-07-01T04:35:51.66Z)
Latitude
2.73261°
Longitude
159.93971°
Altitude
35,788.58 km
Speed
3.075 km/s
True Right ascension
09h 53m 34s
True Declination
2° 43' 47"
Sunlit
Object was in daylight at epoch
Visualization orbit readout
Latitude
1.40232°
Longitude
-128.39745°
Altitude
35,767.934 km
Speed
3.076 km/s
Apparent Right ascension
14h 14m 03s
Apparent Declination
-4° 03' 39"
Sunlit
Object is in daylight
Visualization observer readout
Local Sidereal Time
20:59:42
Azimuth
274.231° WNW
Elevation
-11.351°
Doppler factor
1
Orbital elements
Apogee altitude
35,807.922 km
Perigee altitude
35,767.662 km
Semi-major axis
42,165.929 km
Eccentricity
0.00048
Inclination
2.7752°
RAAN
70.4532°
Arg. of periapsis
175.3868°
True anomaly
Unknown
Mean anomaly
262.6088°
Eccentric anomaly
Unknown
Mean motion
0.25067 °/min
Orbital period
1,436.16 mins
BSTAR
0
Loading historical data...
37210 neighbors
Loading maneuver chart data...
Loading SW <> Apogee altitude chart data...
Loading historical data...
Loading historical data...
Loading historical data...
Loading historical data...
Loading historical data...
Loading historical data...
Loading historical data...

BEIDOU 6 Visibility

Observer location: undefined°, undefined°

BEIDOU 6 is likely not visible in the next few days
Span
Click to sort rows by Start time (UTC) header in descending order
Start Az.
Max El. time (UTC)
Max El. Az.
Max El.
End time (UTC)
End Az.
|